ROMMA est une association bénévole à but non lucratif. Votre soutien est indispensable : ADHERER à ROMMA ou FAIRE un DON

Crêts du Salève - (74, Haute-Savoie)

Salève (1270 m)   Longitude: 6° 10' 28'' E   Latitude: 46° 7' 42'' N Station romma n°73
 

Détail journalier du     <<     >>

Température Precipitation Humidité Vent Dir Rafale Dir. rafale Ensol.
Heure (°C) (mm) (%) (km/h) (km/h) (min)
01:00 6.909035SO48SO0
02:00 6.109434SO48SO0
03:00 6.109035SO50SO0
04:00 6.508436SO48SSO0
05:00 5.609331SO48SO0
06:00 5.409330SO44SO0
07:00 4.809825OSO44OSO0
08:00 5.009423SO31SSO0
09:00
10:00
11:00
12:00 6.508317SSO27SSO20
13:00 6.908614SO24SO40
14:00 7.508117SO27SO30
15:00 7.807920SO34OSO60
16:00 8.307819SO27OSO60
17:00 9.107416SO26OSO60
18:00 8.907310SO21SO60
19:00 8.107713SO23SO0
20:00 7.708019SO23SO0
21:00 7.608414OSO21SO0
22:00 7.50793OSO10OSO0
23:00 7.40804OSO13OSO0
minuit 8.00684OSO10OSO0

Graphique du 10-10-2019

 

Serveur OMMA